DLH4215 EDDH-ESSA

Flight info

Callsign DLH4215
Flight time 1h 37m
Altitude 41000
Route LUGEG3G LUGEG P605 MEGAR DCT BEDOS N851 PELUP Z226 NILUG
Aircraft A388/J-SADE2E3FGHIJ3J4J5M1RWXY/LB1D1

Departure

Time 2026-04-24 20:11
Airport Hamburg Helmut Schmidt Airport (EDDH)

Arrival

Time 2026-04-24 21:49
Airport Stockholm-Arlanda Airport (ESSA)
Time Latitude Longitude Altitude Speed Heading
2026-04-24 19:40 53.63283 10.00373 50 ft 0 kts 85°
2026-04-24 19:52 53.63282 10.00352 49 ft 2 kts 85°
2026-04-24 19:52 53.63281 10.00323 46 ft 2 kts 85°
2026-04-24 19:52 53.63283 10.00315 45 ft 0 kts 78°
2026-04-24 19:53 53.63273 10.00280 44 ft 3 kts 116°
2026-04-24 19:53 53.63278 10.00240 44 ft 3 kts 156°
2026-04-24 19:53 53.63288 10.00225 44 ft 0 kts 176°
2026-04-24 19:56 53.63269 10.00223 45 ft 6 kts 181°
2026-04-24 19:57 53.63209 10.00221 47 ft 12 kts 181°
2026-04-24 19:57 53.63111 10.00228 47 ft 16 kts 176°
2026-04-24 19:57 53.63001 10.00153 46 ft 18 kts 211°
2026-04-24 19:57 53.62907 10.00057 46 ft 6 kts 207°
2026-04-24 19:58 53.62903 10.00054 46 ft 0 kts 206°
2026-04-24 20:01 53.62900 10.00052 46 ft 2 kts 206°
2026-04-24 20:01 53.62881 10.00037 48 ft 1 kts 206°
2026-04-24 20:01 53.62878 10.00035 48 ft 0 kts 206°
2026-04-24 20:04 53.62860 10.00020 48 ft 6 kts 206°
2026-04-24 20:04 53.62842 9.99988 47 ft 2 kts 229°
2026-04-24 20:04 53.62839 9.99968 45 ft 2 kts 242°
2026-04-24 20:05 53.62837 9.99957 45 ft 0 kts 244°
2026-04-24 20:08 53.62826 9.99917 47 ft 11 kts 245°
2026-04-24 20:08 53.62825 9.99787 47 ft 10 kts 284°
2026-04-24 20:09 53.62847 9.99767 46 ft 0 kts 323°
2026-04-24 20:09 53.62848 9.99766 46 ft 0 kts 324°
2026-04-24 20:10 53.62865 9.99748 48 ft 23 kts 326°
2026-04-24 20:10 53.63297 9.99369 49 ft 115 kts 333°
2026-04-24 20:11 53.64254 9.98544 49 ft 190 kts 333°
2026-04-24 20:11 53.65563 9.97411 722 ft 228 kts 332°
2026-04-24 20:11 53.67047 9.96115 1936 ft 248 kts 332°
2026-04-24 20:11 53.68653 9.94640 2948 ft 284 kts 330°
2026-04-24 20:12 53.70498 9.92865 3749 ft 322 kts 329°
2026-04-24 20:12 53.72551 9.90805 4266 ft 360 kts 328°
2026-04-24 20:12 53.74725 9.88556 4736 ft 366 kts 328°
2026-04-24 20:12 53.76862 9.86283 6459 ft 360 kts 327°
2026-04-24 20:13 53.78973 9.83985 8226 ft 362 kts 327°
2026-04-24 20:13 53.81084 9.81637 9863 ft 365 kts 326°
2026-04-24 20:13 53.83242 9.79196 10358 ft 381 kts 326°
2026-04-24 20:13 53.85349 9.76749 10254 ft 359 kts 325°
2026-04-24 20:14 53.87359 9.74356 9977 ft 342 kts 324°
2026-04-24 20:14 53.89288 9.72032 9053 ft 343 kts 324°
2026-04-24 20:14 53.91301 9.69604 7486 ft 367 kts 325°
2026-04-24 20:14 53.93303 9.67373 7895 ft 326 kts 328°
2026-04-24 20:15 53.95081 9.65496 8674 ft 272 kts 327°
2026-04-24 20:15 53.96610 9.63844 9477 ft 266 kts 327°
2026-04-24 20:15 53.98258 9.62007 10112 ft 301 kts 328°
2026-04-24 20:15 54.00282 9.60621 10682 ft 334 kts 347°
2026-04-24 20:16 54.02540 9.60768 12297 ft 328 kts 20°
2026-04-24 20:16 54.04411 9.63239 12630 ft 368 kts 51°
2026-04-24 20:16 54.05874 9.67170 12545 ft 414 kts 66°
2026-04-24 20:16 54.06684 9.72022 12747 ft 428 kts 78°
2026-04-24 20:17 54.07395 9.76717 13661 ft 383 kts 72°
2026-04-24 20:17 54.09233 9.83607 16388 ft 294 kts 59°
2026-04-24 20:17 54.10353 9.86635 16291 ft 317 kts 56°
2026-04-24 20:18 54.11219 9.88757 16276 ft 339 kts 54°
2026-04-24 20:18 54.13208 9.93253 16701 ft 366 kts 52°
2026-04-24 20:18 54.14715 9.97022 16577 ft 397 kts 56°
2026-04-24 20:18 54.16342 10.00852 17434 ft 402 kts 52°
2026-04-24 20:19 54.18090 10.04613 17785 ft 419 kts 51°
2026-04-24 20:19 54.19865 10.08543 18739 ft 418 kts 52°
2026-04-24 20:19 54.21700 10.12472 19323 ft 426 kts 50°
2026-04-24 20:19 54.23618 10.16389 19982 ft 434 kts 49°
2026-04-24 20:20 54.25619 10.20319 20628 ft 440 kts 48°
2026-04-24 20:20 54.27644 10.24160 21821 ft 430 kts 47°
2026-04-24 20:20 54.29656 10.27881 22232 ft 419 kts 46°
2026-04-24 20:20 54.31667 10.31573 21623 ft 437 kts 49°
2026-04-24 20:21 54.33549 10.35757 21426 ft 449 kts 54°
2026-04-24 20:21 54.35373 10.40058 21777 ft 450 kts 54°
2026-04-24 20:21 54.37180 10.44343 22525 ft 439 kts 54°
2026-04-24 20:21 54.38910 10.48481 23528 ft 418 kts 54°
2026-04-24 20:22 54.40403 10.52413 25336 ft 374 kts 61°
2026-04-24 20:22 54.41519 10.56456 25582 ft 381 kts 68°
2026-04-24 20:22 54.42389 10.60838 25623 ft 388 kts 74°
2026-04-24 20:22 54.43019 10.65298 26084 ft 385 kts 78°
2026-04-24 20:23 54.43488 10.69947 25672 ft 404 kts 82°
2026-04-24 20:23 54.43772 10.74375 27612 ft 333 kts 85°
2026-04-24 20:23 54.43894 10.78090 29409 ft 289 kts 89°
2026-04-24 20:23 54.43907 10.81411 30010 ft 279 kts 91°
2026-04-24 20:24 54.43875 10.83713 29410 ft 305 kts 92°
2026-04-24 20:24 54.43709 10.88919 28745 ft 331 kts 95°
2026-04-24 20:24 54.43503 10.92651 29714 ft 306 kts 96°
2026-04-24 20:24 54.43389 10.96396 29178 ft 332 kts 88°
2026-04-24 20:25 54.43580 11.00670 28053 ft 383 kts 84°
2026-04-24 20:25 54.43728 11.05474 27560 ft 413 kts 89°
2026-04-24 20:25 54.43704 11.10239 29023 ft 380 kts 92°
2026-04-24 20:25 54.43570 11.14530 30717 ft 348 kts 94°
2026-04-24 20:26 54.43398 11.18670 31089 ft 352 kts 91°
2026-04-24 20:26 54.43489 11.23031 30564 ft 381 kts 84°
2026-04-24 20:26 54.43895 11.27691 29534 ft 422 kts 79°
2026-04-24 20:26 54.44581 11.32890 28087 ft 472 kts 75°
2026-04-24 20:27 54.45615 11.38425 27958 ft 492 kts 68°
2026-04-24 20:27 54.47031 11.43899 27575 ft 514 kts 65°
2026-04-24 20:27 54.48564 11.49607 26883 ft 537 kts 65°
2026-04-24 20:27 54.50064 11.55389 28038 ft 504 kts 67°
2026-04-24 20:28 54.51173 11.60427 31880 ft 386 kts 72°
2026-04-24 20:28 54.51809 11.64210 35929 ft 296 kts 76°
2026-04-24 20:28 54.52256 11.67576 36755 ft 291 kts 78°
2026-04-24 20:28 54.52643 11.71247 34793 ft 348 kts 82°
2026-04-24 20:29 54.52886 11.74223 32821 ft 387 kts 97°
2026-04-24 20:29 54.52774 11.80521 24109 ft 529 kts 94°
2026-04-24 20:29 54.52776 11.87042 22894 ft 536 kts 83°
2026-04-24 20:29 54.53357 11.93071 24041 ft 490 kts 78°
2026-04-24 20:30 54.54097 11.98662 23969 ft 472 kts 76°
2026-04-24 20:30 54.54968 12.04105 22968 ft 474 kts 72°
2026-04-24 20:30 54.56115 12.09037 24431 ft 434 kts 62°
2026-04-24 20:30 54.57890 12.13378 23908 ft 464 kts 43°
2026-04-24 20:31 54.60521 12.16513 25029 ft 447 kts 29°
2026-04-24 20:31 54.63150 12.19027 26617 ft 430 kts 28°
2026-04-24 20:31 54.65828 12.21559 26725 ft 444 kts 28°
2026-04-24 20:31 54.68526 12.23969 27406 ft 444 kts 27°
2026-04-24 20:32 54.71259 12.26505 27960 ft 444 kts 28°
2026-04-24 20:32 54.73945 12.29057 28837 ft 435 kts 29°
2026-04-24 20:32 54.76480 12.31640 29928 ft 412 kts 31°
2026-04-24 20:32 54.78901 12.34201 30482 ft 405 kts 31°
2026-04-24 20:33 54.81277 12.36712 31034 ft 395 kts 31°
2026-04-24 20:33 54.83584 12.39190 31552 ft 387 kts 32°
2026-04-24 20:33 54.85871 12.41719 31436 ft 397 kts 33°
2026-04-24 20:33 54.88213 12.44363 31084 ft 412 kts 33°
2026-04-24 20:34 54.90589 12.47069 31551 ft 405 kts 33°
2026-04-24 20:34 54.92923 12.49792 31824 ft 403 kts 34°
2026-04-24 20:34 54.95246 12.52521 31975 ft 405 kts 33°
2026-04-24 20:34 54.97609 12.55258 32040 ft 407 kts 33°
2026-04-24 20:35 55.02317 12.60918 32154 ft 414 kts 36°
2026-04-24 20:35 55.04634 12.63872 32329 ft 415 kts 36°
2026-04-24 20:35 55.06952 12.66779 32904 ft 401 kts 35°
2026-04-24 20:36 55.09175 12.69547 33295 ft 398 kts 35°
2026-04-24 20:36 55.11445 12.72350 33370 ft 400 kts 35°
2026-04-24 20:36 55.16063 12.78092 33085 ft 419 kts 36°
2026-04-24 20:37 55.18424 12.81032 33498 ft 407 kts 33°
2026-04-24 20:37 55.20783 12.83536 34140 ft 395 kts 30°
2026-04-24 20:37 55.25556 12.88471 34014 ft 407 kts 31°
2026-04-24 20:38 55.27888 12.90966 35123 ft 364 kts 32°
2026-04-24 20:38 55.29911 12.93251 36154 ft 347 kts 33°
2026-04-24 20:38 55.31980 12.95604 35754 ft 363 kts 32°
2026-04-24 20:38 55.34165 12.98038 35344 ft 379 kts 32°
2026-04-24 20:39 55.36425 13.00573 35036 ft 392 kts 33°
2026-04-24 20:39 55.38694 13.03217 35291 ft 389 kts 34°
2026-04-24 20:39 55.43174 13.08783 35633 ft 396 kts 36°
2026-04-24 20:40 55.45395 13.11702 35798 ft 399 kts 37°
2026-04-24 20:40 55.47604 13.14700 35939 ft 404 kts 37°
2026-04-24 20:40 55.49864 13.17772 35731 ft 418 kts 38°
2026-04-24 20:40 55.52150 13.20965 35717 ft 425 kts 39°
2026-04-24 20:41 55.54342 13.24204 36896 ft 397 kts 40°
2026-04-24 20:41 55.56390 13.27374 37561 ft 390 kts 41°
2026-04-24 20:41 55.60405 13.33988 37733 ft 395 kts 41°
2026-04-24 20:42 55.62482 13.37177 37862 ft 398 kts 41°
2026-04-24 20:42 55.64597 13.40507 37385 ft 418 kts 42°
2026-04-24 20:42 55.68080 13.46376 38224 ft 401 kts 42°
2026-04-24 20:43 55.70140 13.49679 38460 ft 404 kts 41°
2026-04-24 20:43 55.72186 13.53128 37618 ft 412 kts 46°
2026-04-24 20:43 55.74238 13.56932 37067 ft 433 kts 45°
2026-04-24 20:43 55.76954 13.61699 38581 ft 398 kts 44°
2026-04-24 20:44 55.80311 13.67546 38380 ft 413 kts 40°
2026-04-24 20:44 55.84833 13.73837 38635 ft 417 kts 37°
2026-04-24 20:45 55.87224 13.76912 38267 ft 432 kts 34°
2026-04-24 20:45 55.89693 13.79876 38902 ft 416 kts 33°
2026-04-24 20:45 55.92032 13.82657 39890 ft 396 kts 34°
2026-04-24 20:45 55.94313 13.85391 40025 ft 398 kts 33°
2026-04-24 20:46 55.96694 13.88164 39298 ft 423 kts 32°
2026-04-24 20:46 55.99243 13.91051 38779 ft 442 kts 32°
2026-04-24 20:46 56.04622 13.96693 38700 ft 456 kts 28°
2026-04-24 20:47 56.07461 13.99392 38561 ft 465 kts 27°
2026-04-24 20:47 56.10288 14.02012 38947 ft 459 kts 26°
2026-04-24 20:47 56.13135 14.04498 39429 ft 455 kts 25°
2026-04-24 20:47 56.15989 14.06919 39840 ft 448 kts 25°
2026-04-24 20:48 56.18742 14.09300 40653 ft 432 kts 26°
2026-04-24 20:48 56.21415 14.11739 40886 ft 433 kts 27°
2026-04-24 20:48 56.24106 14.14302 40637 ft 443 kts 28°
2026-04-24 20:48 56.26836 14.16998 40567 ft 447 kts 30°
2026-04-24 20:49 56.29398 14.19755 41931 ft 406 kts 33°
2026-04-24 20:49 56.31583 14.22430 43702 ft 355 kts 35°
2026-04-24 20:49 56.33564 14.24855 44220 ft 343 kts 33°
2026-04-24 20:49 56.35598 14.27302 42957 ft 375 kts 32°
2026-04-24 20:50 56.37850 14.30157 40180 ft 395 kts 51°
2026-04-24 20:50 56.40071 14.31763 31588 ft 439 kts 340°
2026-04-24 20:50 56.43058 14.28598 25344 ft 540 kts 320°
2026-04-24 20:50 56.45952 14.24247 24721 ft 521 kts 321°
2026-04-24 20:51 56.48931 14.21685 26880 ft 429 kts
2026-04-24 20:51 56.51068 14.23815 29989 ft 327 kts 56°
2026-04-24 20:51 56.52457 14.26943 30080 ft 326 kts 40°
2026-04-24 20:51 56.54210 14.29816 29717 ft 347 kts 40°
2026-04-24 20:52 56.56043 14.32487 30394 ft 336 kts 38°
2026-04-24 20:52 56.57888 14.35011 30844 ft 336 kts 34°
2026-04-24 20:52 56.59803 14.37637 30678 ft 354 kts 38°
2026-04-24 20:52 56.61830 14.40322 30602 ft 369 kts 33°
2026-04-24 20:53 56.64026 14.42919 30575 ft 383 kts 31°
2026-04-24 20:53 56.66404 14.45100 30913 ft 385 kts 20°
2026-04-24 20:53 56.68889 14.47297 30343 ft 414 kts 32°
2026-04-24 20:53 56.71336 14.50308 30170 ft 421 kts 34°
2026-04-24 20:54 56.73553 14.53129 31710 ft 356 kts 34°
2026-04-24 20:54 56.75475 14.55555 33019 ft 331 kts 36°
2026-04-24 20:54 56.77380 14.58046 32868 ft 349 kts 35°
2026-04-24 20:54 56.79510 14.60688 31609 ft 397 kts 32°
2026-04-24 20:55 56.84308 14.66250 31926 ft 414 kts 32°
2026-04-24 20:55 56.86766 14.69173 31894 ft 428 kts 33°
2026-04-24 20:55 56.89250 14.72262 32073 ft 436 kts 34°
2026-04-24 20:56 56.91758 14.75541 32023 ft 449 kts 36°
2026-04-24 20:56 56.94184 14.78942 33196 ft 426 kts 38°
2026-04-24 20:56 56.96520 14.82220 33834 ft 425 kts 36°
2026-04-24 20:56 56.98949 14.85348 33629 ft 441 kts 34°
2026-04-24 20:57 57.01497 14.88650 33507 ft 454 kts 36°
2026-04-24 20:57 57.04038 14.92120 33836 ft 457 kts 37°
2026-04-24 20:57 57.06639 14.95530 34065 ft 461 kts 33°
2026-04-24 20:57 57.09253 14.98594 35502 ft 426 kts 37°
2026-04-24 20:58 57.11448 15.02163 36119 ft 424 kts 40°
2026-04-24 20:58 57.13779 15.05662 35812 ft 440 kts 38°
2026-04-24 20:58 57.16224 15.09126 35481 ft 457 kts 36°
2026-04-24 20:58 57.18748 15.12675 35908 ft 453 kts 36°
2026-04-24 20:59 57.21254 15.16245 36121 ft 457 kts 38°
2026-04-24 20:59 57.23760 15.19931 36099 ft 466 kts 38°
2026-04-24 20:59 57.26441 15.23423 35852 ft 479 kts 31°
2026-04-24 20:59 57.29299 15.26705 35858 ft 487 kts 32°
2026-04-24 21:00 57.32124 15.30109 36460 ft 480 kts 33°
2026-04-24 21:00 57.34938 15.33391 36928 ft 477 kts 30°
2026-04-24 21:00 57.37818 15.36386 37435 ft 473 kts 28°
2026-04-24 21:00 57.40705 15.39090 37845 ft 469 kts 24°
2026-04-24 21:01 57.43631 15.41623 38518 ft 460 kts 24°
2026-04-24 21:01 57.46539 15.43980 39132 ft 450 kts 22°
2026-04-24 21:01 57.49422 15.46158 39514 ft 448 kts 21°
2026-04-24 21:01 57.52337 15.48305 39586 ft 451 kts 22°
2026-04-24 21:02 57.55229 15.50465 39959 ft 448 kts 22°
2026-04-24 21:02 57.58115 15.52681 40153 ft 447 kts 22°
2026-04-24 21:02 57.60952 15.54931 40562 ft 442 kts 24°
2026-04-24 21:02 57.63794 15.57331 40029 ft 460 kts 25°
2026-04-24 21:03 57.66766 15.59777 39324 ft 483 kts 23°
2026-04-24 21:03 57.69876 15.62344 39084 ft 494 kts 25°
2026-04-24 21:03 57.72952 15.65172 39571 ft 486 kts 26°
2026-04-24 21:03 57.75950 15.67993 40139 ft 480 kts 27°
2026-04-24 21:04 57.78859 15.70913 40705 ft 472 kts 29°
2026-04-24 21:04 57.81707 15.73957 40985 ft 470 kts 30°
2026-04-24 21:04 57.87372 15.80288 41316 ft 472 kts 31°
2026-04-24 21:05 57.90167 15.83610 41081 ft 482 kts 33°
2026-04-24 21:05 57.93003 15.87282 39990 ft 510 kts 36°
2026-04-24 21:05 57.95830 15.91465 38529 ft 531 kts 41°
2026-04-24 21:05 57.98528 15.96131 38516 ft 518 kts 43°
2026-04-24 21:06 58.01103 16.00661 39603 ft 498 kts 43°
2026-04-24 21:06 58.03638 16.05113 39850 ft 501 kts 43°
2026-04-24 21:06 58.06209 16.09694 39347 ft 517 kts 43°
2026-04-24 21:06 58.08841 16.14373 37691 ft 524 kts 43°
2026-04-24 21:07 58.11485 16.19115 35651 ft 522 kts 43°
2026-04-24 21:07 58.14103 16.23923 32761 ft 525 kts 44°
2026-04-24 21:07 58.16703 16.28901 30276 ft 535 kts 45°
2026-04-24 21:07 58.19260 16.33847 29776 ft 523 kts 45°
2026-04-24 21:08 58.21823 16.38720 28626 ft 528 kts 44°
2026-04-24 21:08 58.24393 16.43463 28985 ft 501 kts 44°
2026-04-24 21:08 58.26878 16.48058 28481 ft 494 kts 44°
2026-04-24 21:08 58.29342 16.52203 29199 ft 455 kts 39°
2026-04-24 21:09 58.31827 16.55907 28663 ft 451 kts 37°
2026-04-24 21:09 58.34281 16.59469 28453 ft 439 kts 37°
2026-04-24 21:09 58.36651 16.62973 28450 ft 422 kts 38°
2026-04-24 21:09 58.38843 16.66455 28336 ft 407 kts 40°
2026-04-24 21:10 58.41062 16.70059 26280 ft 436 kts 40°
2026-04-24 21:10 58.43460 16.74102 24090 ft 478 kts 42°
2026-04-24 21:10 58.45867 16.78383 23457 ft 475 kts 43°
2026-04-24 21:10 58.48220 16.82733 22642 ft 471 kts 44°
2026-04-24 21:11 58.50550 16.87219 21087 ft 482 kts 46°
2026-04-24 21:11 58.52838 16.92053 19819 ft 492 kts 50°
2026-04-24 21:11 58.54885 16.97118 19497 ft 475 kts 53°
2026-04-24 21:11 58.56726 17.02227 18950 ft 447 kts 57°
2026-04-24 21:12 58.58279 17.07042 18479 ft 408 kts 59°
2026-04-24 21:12 58.59674 17.11670 17224 ft 395 kts 60°
2026-04-24 21:12 58.60970 17.16226 16066 ft 384 kts 62°
2026-04-24 21:12 58.62079 17.20526 16647 ft 330 kts 64°
2026-04-24 21:13 58.63008 17.24416 15959 ft 329 kts 66°
2026-04-24 21:13 58.63940 17.28622 14680 ft 349 kts 68°
2026-04-24 21:13 58.64837 17.32916 13884 ft 347 kts 68°
2026-04-24 21:13 58.65727 17.37136 12643 ft 329 kts 68°
2026-04-24 21:14 58.66548 17.41112 11530 ft 311 kts 69°
2026-04-24 21:14 58.67276 17.44730 11540 ft 281 kts 68°
2026-04-24 21:14 58.68023 17.48309 10684 ft 297 kts 68°
2026-04-24 21:14 58.68812 17.52067 9767 ft 311 kts 68°
2026-04-24 21:15 58.69613 17.55873 10119 ft 297 kts 67°
2026-04-24 21:15 58.70405 17.59398 10255 ft 281 kts 66°
2026-04-24 21:15 58.71255 17.62742 9989 ft 274 kts 62°
2026-04-24 21:15 58.72192 17.66043 9281 ft 286 kts 61°
2026-04-24 21:16 58.73178 17.69346 8767 ft 288 kts 57°
2026-04-24 21:16 58.74308 17.72576 8120 ft 295 kts 55°
2026-04-24 21:16 58.75500 17.75866 7438 ft 302 kts 54°
2026-04-24 21:16 58.76717 17.79242 6725 ft 307 kts 56°
2026-04-24 21:17 58.77845 17.82492 7036 ft 277 kts 56°
2026-04-24 21:17 58.78883 17.85588 6711 ft 272 kts 58°
2026-04-24 21:17 58.79873 17.88702 6132 ft 277 kts 59°
2026-04-24 21:17 58.80895 17.92013 5369 ft 290 kts 58°
2026-04-24 21:18 58.81889 17.95198 5245 ft 264 kts 59°
2026-04-24 21:18 58.82747 17.98031 5390 ft 229 kts 59°
2026-04-24 21:18 58.83581 18.00721 4773 ft 236 kts 59°
2026-04-24 21:18 58.84432 18.03277 4573 ft 221 kts 52°
2026-04-24 21:19 58.85507 18.05415 3882 ft 230 kts 37°
2026-04-24 21:19 58.86865 18.06635 4152 ft 192 kts 11°
2026-04-24 21:19 58.88044 18.07158 4428 ft 161 kts 13°
2026-04-24 21:19 58.89111 18.07721 4284 ft 160 kts 17°
2026-04-24 21:20 58.91540 18.09960 4866 ft 221 kts 27°
2026-04-24 21:20 58.92996 18.11398 5381 ft 256 kts 25°
2026-04-24 21:20 58.94705 18.12980 5842 ft 289 kts 25°
2026-04-24 21:21 58.96687 18.14373 6218 ft 323 kts 17°
2026-04-24 21:21 58.98783 18.15684 6732 ft 304 kts 18°
2026-04-24 21:21 59.00697 18.16951 7091 ft 277 kts 19°
2026-04-24 21:21 59.02579 18.18201 6962 ft 292 kts 18°
2026-04-24 21:22 59.04470 18.19375 7030 ft 276 kts 17°
2026-04-24 21:22 59.06268 18.20468 6992 ft 268 kts 17°
2026-04-24 21:22 59.08039 18.21537 6790 ft 267 kts 17°
2026-04-24 21:22 59.09763 18.22642 6729 ft 260 kts 19°
2026-04-24 21:23 59.11469 18.23844 6452 ft 262 kts 20°
2026-04-24 21:23 59.13218 18.25135 5913 ft 275 kts 21°
2026-04-24 21:23 59.15005 18.26576 5298 ft 288 kts 22°
2026-04-24 21:23 59.16915 18.27994 4783 ft 297 kts 18°
2026-04-24 21:24 59.18859 18.29203 4673 ft 288 kts 17°
2026-04-24 21:24 59.20720 18.30300 4584 ft 273 kts 14°
2026-04-24 21:24 59.22552 18.31107 4335 ft 266 kts 10°
2026-04-24 21:24 59.24342 18.31741 4167 ft 256 kts
2026-04-24 21:25 59.26032 18.32360 4405 ft 233 kts 12°
2026-04-24 21:25 59.27506 18.33012 4717 ft 210 kts 12°
2026-04-24 21:25 59.28912 18.33668 4628 ft 205 kts 13°
2026-04-24 21:25 59.30307 18.34234 4438 ft 206 kts
2026-04-24 21:26 59.31746 18.34608 4165 ft 211 kts
2026-04-24 21:26 59.33181 18.34960 4049 ft 209 kts
2026-04-24 21:26 59.34618 18.35343 4078 ft 211 kts
2026-04-24 21:26 59.36037 18.35876 4630 ft 212 kts 12°
2026-04-24 21:27 59.37607 18.36565 4442 ft 250 kts 12°
2026-04-24 21:27 59.39412 18.37283 4388 ft 279 kts 10°
2026-04-24 21:27 59.41365 18.37966 4763 ft 289 kts
2026-04-24 21:27 59.43397 18.38655 4892 ft 308 kts 11°
2026-04-24 21:28 59.45556 18.39510 4952 ft 327 kts 10°
2026-04-24 21:28 59.47867 18.40262 5214 ft 335 kts
2026-04-24 21:28 59.50121 18.40908 5893 ft 334 kts
2026-04-24 21:28 59.52515 18.41480 5698 ft 359 kts
2026-04-24 21:29 59.55052 18.42208 5657 ft 375 kts 16°
2026-04-24 21:29 59.57258 18.44952 5750 ft 387 kts 48°
2026-04-24 21:29 59.58555 18.49648 5581 ft 396 kts 69°
2026-04-24 21:29 59.59366 18.54645 5684 ft 365 kts 75°
2026-04-24 21:30 59.59717 18.59543 5027 ft 359 kts 86°
2026-04-24 21:30 59.59838 18.64184 5488 ft 319 kts 88°
2026-04-24 21:30 59.59952 18.68573 5454 ft 328 kts 85°
2026-04-24 21:30 59.60168 18.73031 5570 ft 334 kts 83°
2026-04-24 21:31 59.60493 18.77415 5728 ft 308 kts 81°
2026-04-24 21:31 59.60825 18.81394 5917 ft 282 kts 80°
2026-04-24 21:31 59.61132 18.85124 5778 ft 270 kts 82°
2026-04-24 21:31 59.61374 18.88821 5201 ft 276 kts 84°
2026-04-24 21:32 59.61560 18.92556 5136 ft 261 kts 85°
2026-04-24 21:32 59.61679 18.95907 5485 ft 229 kts 87°
2026-04-24 21:32 59.61788 18.99011 5189 ft 232 kts 85°
2026-04-24 21:32 59.61899 19.02164 5191 ft 220 kts 86°
2026-04-24 21:33 59.61985 19.05151 5023 ft 218 kts 87°
2026-04-24 21:33 59.62030 19.07113 4970 ft 213 kts 87°
2026-04-24 21:33 59.62138 19.10931 4808 ft 206 kts 86°
2026-04-24 21:33 59.62189 19.13570 5020 ft 181 kts 90°
2026-04-24 21:34 59.62022 19.15990 3914 ft 188 kts 123°
2026-04-24 21:34 59.60764 19.18296 2413 ft 264 kts 135°
2026-04-24 21:34 59.59757 19.21211 2093 ft 260 kts 109°
2026-04-24 21:34 59.59424 19.24138 3478 ft 201 kts 95°
2026-04-24 21:35 59.59419 19.27094 3786 ft 203 kts 89°
2026-04-24 21:35 59.59323 19.29595 3682 ft 194 kts 122°
2026-04-24 21:35 59.57811 19.31730 819 ft 370 kts 158°
2026-04-24 21:35 59.55481 19.34106 1453 ft 379 kts 146°
2026-04-24 21:36 59.53629 19.37526 2500 ft 352 kts 128°
2026-04-24 21:36 59.52488 19.41592 3460 ft 336 kts 110°
2026-04-24 21:36 59.52079 19.46033 4236 ft 315 kts 90°
2026-04-24 21:36 59.52740 19.49859 4978 ft 299 kts 30°
2026-04-24 21:37 59.54463 19.49126 5390 ft 279 kts 291°
2026-04-24 21:37 59.55146 19.45414 5105 ft 300 kts 295°
2026-04-24 21:37 59.56317 19.42013 5519 ft 302 kts 311°
2026-04-24 21:37 59.57804 19.38878 6204 ft 319 kts 314°
2026-04-24 21:38 59.59340 19.35702 6668 ft 332 kts 314°
2026-04-24 21:38 59.60991 19.32356 6601 ft 334 kts 313°
2026-04-24 21:38 59.62534 19.29168 6536 ft 315 kts 314°
2026-04-24 21:38 59.64065 19.26070 5872 ft 317 kts 312°
2026-04-24 21:39 59.65518 19.22939 5653 ft 303 kts 311°
2026-04-24 21:39 59.66955 19.19933 5156 ft 301 kts 315°
2026-04-24 21:39 59.68348 19.17032 5005 ft 285 kts 301°
2026-04-24 21:39 59.68865 19.13394 4817 ft 272 kts 274°
2026-04-24 21:40 59.68974 19.09739 4802 ft 259 kts 274°
2026-04-24 21:40 59.69068 19.06175 4996 ft 260 kts 269°
2026-04-24 21:40 59.69054 19.02554 5287 ft 270 kts 269°
2026-04-24 21:40 59.69095 18.98905 5549 ft 269 kts 272°
2026-04-24 21:41 59.69166 18.95164 5613 ft 271 kts 271°
2026-04-24 21:41 59.69191 18.91466 5742 ft 267 kts 270°
2026-04-24 21:41 59.69213 18.87772 5944 ft 270 kts 271°
2026-04-24 21:41 59.69257 18.84021 5942 ft 278 kts 271°
2026-04-24 21:42 59.69336 18.80179 5582 ft 277 kts 273°
2026-04-24 21:42 59.69456 18.76366 5027 ft 280 kts 273°
2026-04-24 21:42 59.69626 18.72600 5039 ft 261 kts 277°
2026-04-24 21:42 59.69833 18.69011 4402 ft 269 kts 276°
2026-04-24 21:43 59.69987 18.65195 3686 ft 280 kts 272°
2026-04-24 21:43 59.70042 18.61506 3627 ft 264 kts 271°
2026-04-24 21:43 59.70099 18.57929 3391 ft 257 kts 272°
2026-04-24 21:43 59.70148 18.54440 3133 ft 251 kts 270°
2026-04-24 21:44 59.70105 18.51025 2951 ft 243 kts 267°
2026-04-24 21:44 59.69994 18.47778 2941 ft 235 kts 265°
2026-04-24 21:44 59.69832 18.44528 2987 ft 238 kts 264°
2026-04-24 21:44 59.69653 18.41262 3178 ft 239 kts 263°
2026-04-24 21:45 59.69450 18.37952 3291 ft 244 kts 263°
2026-04-24 21:45 59.69284 18.34615 3327 ft 242 kts 266°
2026-04-24 21:45 59.69181 18.31301 3387 ft 243 kts 268°
2026-04-24 21:45 59.69090 18.27992 3358 ft 244 kts 265°
2026-04-24 21:46 59.68946 18.24673 3363 ft 240 kts 263°
2026-04-24 21:46 59.68703 18.21352 3141 ft 247 kts 261°
2026-04-24 21:46 59.68428 18.18043 3029 ft 240 kts 261°
2026-04-24 21:46 59.68211 18.14822 2655 ft 235 kts 262°
2026-04-24 21:47 59.67950 18.11898 2243 ft 197 kts 258°
2026-04-24 21:47 59.67770 18.10198 1879 ft 178 kts 258°
2026-04-24 21:47 59.67427 18.07206 1368 ft 172 kts 259°
2026-04-24 21:47 59.67213 18.04793 1193 ft 182 kts 260°
2026-04-24 21:48 59.66944 18.02302 752 ft 182 kts 257°
2026-04-24 21:48 59.66655 17.99941 401 ft 172 kts 256°
2026-04-24 21:48 59.66358 17.97678 166 ft 165 kts 256°
2026-04-24 21:48 59.66148 17.96002 146 ft 74 kts 256°
2026-04-24 21:49 59.66082 17.95479 143 ft 23 kts 255°
2026-04-24 21:49 59.66043 17.95185 141 ft 21 kts 255°
2026-04-24 21:49 59.66003 17.94923 142 ft 18 kts 250°
2026-04-24 21:49 59.65948 17.94723 143 ft 15 kts 238°
2026-04-24 21:50 59.65886 17.94569 144 ft 13 kts 229°
2026-04-24 21:50 59.65856 17.94502 144 ft 0 kts 229°
2026-04-24 21:54 59.65852 17.94493 144 ft 2 kts 229°
2026-04-24 21:54 59.65825 17.94437 144 ft 9 kts 226°
2026-04-24 21:54 59.65762 17.94309 144 ft 17 kts 225°
2026-04-24 21:55 59.65664 17.94098 144 ft 24 kts 231°
2026-04-24 21:55 59.65553 17.93889 144 ft 19 kts 187°
2026-04-24 21:55 59.65467 17.93918 144 ft 10 kts 167°
2026-04-24 21:55 59.65417 17.93942 144 ft 5 kts 167°
2026-04-24 21:56 59.65400 17.93950 144 ft 0 kts 167°
2026-04-24 21:57 59.65390 17.93951 144 ft 2 kts 171°
2026-04-24 21:57 59.65373 17.93936 144 ft 3 kts 193°
2026-04-24 21:57 59.65360 17.93881 144 ft 4 kts 239°
2026-04-24 21:57 59.65349 17.93824 144 ft 0 kts 250°
2026-04-24 21:58 59.65349 17.93823 144 ft 0 kts 250°
2026-04-24 21:58 59.65347 17.93809 144 ft 0 kts 252°